Volver al catálogo

DIRECTV 12

ActivoComunicacionesGEO
NORAD 36131·PAYLOAD·🇺🇸 United States

Lanzado Dec 29, 2009 desde Baikonur Cosmodrome

Loading…

TLE

ActualizadoSource: Space-Track

Época: Sep 14, 2026, 13:18 UTC

1 36131U 09075A   26257.55477748 -.00000111  00000-0  00000-0 0  9998
2 36131   0.0184   8.3271 0000414  83.6093 358.5927  1.00270903 47459

Sigue DIRECTV 12 en tiempo real con AllMySat

Download on the App Store